| time (UTC) | temp F | wind direction | speed MPH | gust MPH | rain 1hr in | rain 24hr in | rain mn in | humidity % | barometer mb |
| 20260505213043 | 50 | 325 | 4.0 | 14.0 | 0.00 | 0.00 | 0.00 | 40 | 1009.6 |
| 20260505211554 | 49 | 321 | 5.0 | 11.0 | 0.00 | 0.00 | 0.00 | 42 | 1009.5 |
| 20260505210049 | 49 | 316 | 5.0 | 17.0 | 0.00 | 0.00 | 0.00 | 43 | 1009.7 |
| 20260505204543 | 48 | 239 | 3.0 | 14.0 | 0.00 | 0.00 | 0.00 | 43 | 1009.7 |
| 20260505203043 | 47 | 290 | 3.0 | 12.0 | 0.00 | 0.00 | 0.00 | 44 | 1009.7 |
| 20260505201545 | 48 | 270 | 5.0 | 11.0 | 0.00 | 0.00 | 0.00 | 43 | 1010.0 |
| 20260505200044 | 48 | 193 | 4.0 | 12.0 | 0.00 | 0.00 | 0.00 | 43 | 1009.9 |
| 20260505194559 | 48 | 311 | 4.0 | 12.0 | 0.00 | 0.00 | 0.00 | 42 | 1009.8 |
| 20260505193052 | 49 | 325 | 4.0 | 14.0 | 0.00 | 0.00 | 0.00 | 41 | 1009.8 |
| 20260505191556 | 49 | 172 | 2.0 | 15.0 | 0.00 | 0.00 | 0.00 | 41 | 1009.8 |
| 20260505190048 | 48 | 192 | 5.0 | 11.0 | 0.00 | 0.00 | 0.00 | 42 | 1010.0 |
| 20260505184543 | 47 | 251 | 4.0 | 12.0 | 0.00 | 0.00 | 0.00 | 43 | 1010.2 |
| 20260505183039 | 47 | 291 | 3.0 | 13.0 | 0.00 | 0.00 | 0.00 | 42 | 1010.2 |
| 20260505181539 | 47 | 205 | 5.0 | 14.0 | 0.00 | 0.00 | 0.00 | 41 | 1010.0 |
| 20260505180048 | 48 | 321 | 3.0 | 11.0 | 0.00 | 0.00 | 0.00 | 41 | 1009.9 |
| 20260505174605 | 47 | 295 | 4.0 | 12.0 | 0.00 | 0.00 | 0.00 | 41 | 1010.0 |
| 20260505173043 | 47 | 257 | 3.0 | 18.0 | 0.00 | 0.00 | 0.00 | 41 | 1009.8 |
| 20260505171543 | 46 | 321 | 3.0 | 9.0 | 0.00 | 0.00 | 0.00 | 41 | 1009.9 |
| 20260505170120 | 46 | 306 | 3.0 | 12.0 | 0.00 | 0.00 | 0.00 | 42 | 1010.0 |
| 20260505164542 | 46 | 323 | 4.0 | 17.0 | 0.00 | 0.00 | 0.00 | 41 | 1010.2 |
| 20260505163046 | 46 | 340 | 6.0 | 18.0 | 0.00 | 0.00 | 0.00 | 40 | 1010.2 |
| 20260505161553 | 46 | 340 | 4.0 | 13.0 | 0.00 | 0.00 | 0.00 | 43 | 1010.1 |
| 20260505153053 | 44 | 220 | 5.0 | 11.0 | 0.00 | 0.00 | 0.00 | 45 | 1010.1 |
| 20260505151545 | 44 | 344 | 4.0 | 12.0 | 0.00 | 0.00 | 0.00 | 47 | 1009.9 |
| 20260505124550 | 39 | 319 | 2.0 | 5.0 | 0.00 | 0.00 | 0.00 | 65 | 1008.9 |
| 20260505123102 | 38 | 325 | 1.0 | 5.0 | 0.00 | 0.00 | 0.00 | 69 | 1008.6 |
| 20260505121541 | 36 | 0 | 0.0 | 3.0 | 0.00 | 0.00 | 0.00 | 71 | 1008.6 |
| 20260505120049 | 36 | 0 | 0.0 | 4.0 | 0.00 | 0.00 | 0.00 | 71 | 1008.1 |
| 20260505114610 | 35 | 311 | 0.0 | 2.0 | 0.00 | 0.00 | 0.00 | 71 | 1007.7 |
| 20260505113048 | 35 | 309 | 0.0 | 3.0 | 0.00 | 0.00 | 0.00 | 72 | 1007.5 |
| 20260505111556 | 35 | 309 | 1.0 | 4.0 | 0.00 | 0.00 | 0.00 | 72 | 1007.1 |
| 20260505101544 | 36 | 0 | 0.0 | 2.0 | 0.00 | 0.00 | 0.00 | 68 | 1006.9 |
| 20260505100045 | 36 | 323 | 0.0 | 5.0 | 0.00 | 0.00 | 0.00 | 66 | 1006.9 |
| 20260505094546 | 37 | 328 | 2.0 | 8.0 | 0.00 | 0.00 | 0.00 | 66 | 1006.8 |
| 20260505093042 | 37 | 340 | 3.0 | 8.0 | 0.00 | 0.00 | 0.00 | 66 | 1006.6 |
| 20260505091542 | 37 | 327 | 2.0 | 5.0 | 0.00 | 0.00 | 0.00 | 66 | 1006.5 |
| 20260505090048 | 37 | 325 | 1.0 | 5.0 | 0.00 | 0.00 | 0.00 | 67 | 1006.3 |
| 20260505084545 | 37 | 0 | 1.0 | 4.0 | 0.00 | 0.00 | 0.00 | 67 | 1006.1 |
| 20260505083054 | 37 | 0 | 0.0 | 3.0 | 0.00 | 0.00 | 0.00 | 67 | 1006.1 |
| 20260505081548 | 37 | 281 | 0.0 | 3.0 | 0.00 | 0.00 | 0.00 | 66 | 1005.9 |
| 20260505080042 | 37 | 0 | 0.0 | 0.0 | 0.00 | 0.00 | 0.00 | 65 | 1005.9 |
| 20260505074544 | 38 | 0 | 0.0 | 4.0 | 0.00 | 0.00 | 0.00 | 64 | 1005.8 |
| 20260505073047 | 38 | 0 | 0.0 | 0.0 | 0.00 | 0.00 | 0.00 | 63 | 1005.7 |
| 20260505071543 | 38 | 0 | 0.0 | 2.0 | 0.00 | 0.00 | 0.00 | 63 | 1005.7 |
| 20260505070049 | 39 | 0 | 0.0 | 2.0 | 0.00 | 0.00 | 0.00 | 62 | 1005.8 |
| 20260505064555 | 40 | 0 | 0.0 | 2.0 | 0.00 | 0.00 | 0.00 | 60 | 1005.8 |
| 20260505063049 | 40 | 0 | 0.0 | 4.0 | 0.00 | 0.00 | 0.00 | 60 | 1005.8 |
| 20260505061542 | 40 | 0 | 0.0 | 4.0 | 0.00 | 0.00 | 0.00 | 59 | 1005.9 |
| 20260505060048 | 40 | 265 | 0.0 | 4.0 | 0.00 | 0.00 | 0.00 | 59 | 1005.9 |
| 20260505054557 | 40 | 0 | 0.0 | 4.0 | 0.00 | 0.00 | 0.00 | 59 | 1006.0 |
| 20260505053108 | 40 | 302 | 0.0 | 3.0 | 0.00 | 0.00 | 0.00 | 60 | 1005.7 |
| 20260505051546 | 40 | 0 | 0.0 | 0.0 | 0.00 | 0.00 | 0.00 | 60 | 1005.7 |
| 20260505041616 | 41 | 0 | 0.0 | 0.0 | 0.00 | 0.00 | 0.00 | 57 | 1005.5 |
| 20260505040049 | 41 | 0 | 0.0 | 2.0 | 0.00 | 0.00 | 0.00 | 55 | 1005.5 |
| 20260505034547 | 42 | 0 | 0.0 | 1.0 | 0.00 | 0.00 | 0.00 | 54 | 1005.6 |
| 20260505033043 | 43 | 0 | 0.0 | 0.0 | 0.00 | 0.00 | 0.00 | 53 | 1005.6 |
| 20260505031544 | 44 | 0 | 0.0 | 1.0 | 0.00 | 0.00 | 0.00 | 51 | 1005.6 |
| 20260505030042 | 45 | 300 | 1.0 | 3.0 | 0.00 | 0.00 | 0.00 | 49 | 1005.7 |
| 20260505024547 | 45 | 288 | 1.0 | 6.0 | 0.00 | 0.00 | 0.00 | 48 | 1005.5 |
| 20260505023045 | 46 | 310 | 2.0 | 8.0 | 0.00 | 0.00 | 0.00 | 47 | 1005.3 |
| 20260505021545 | 47 | 304 | 4.0 | 14.0 | 0.00 | 0.00 | 0.00 | 45 | 1005.0 |
| 20260505020041 | 47 | 336 | 8.0 | 21.0 | 0.00 | 0.00 | 0.00 | 45 | 1004.8 |
| 20260505014544 | 48 | 331 | 7.0 | 15.0 | 0.00 | 0.00 | 0.00 | 46 | 1004.4 |
| 20260505013039 | 49 | 319 | 6.0 | 13.0 | 0.00 | 0.00 | 0.00 | 46 | 1004.1 |
| 20260505011538 | 49 | 323 | 7.0 | 17.0 | 0.00 | 0.00 | 0.00 | 45 | 1003.6 |
| 20260505010046 | 50 | 292 | 6.0 | 20.0 | 0.00 | 0.00 | 0.00 | 44 | 1003.2 |
| 20260505004541 | 50 | 304 | 4.0 | 13.0 | 0.00 | 0.00 | 0.00 | 45 | 1003.0 |
| 20260505003043 | 51 | 323 | 6.0 | 16.0 | 0.00 | 0.00 | 0.00 | 45 | 1002.9 |
| 20260505001550 | 51 | 338 | 9.0 | 19.0 | 0.00 | 0.00 | 0.00 | 44 | 1002.7 |
| 20260505000054 | 52 | 338 | 8.0 | 19.0 | 0.00 | 0.00 | 0.00 | 43 | 1002.5 |
| 20260504234552 | 52 | 300 | 13.0 | 22.0 | 0.00 | 0.00 | 0.00 | 42 | 1002.4 |
| 20260504233048 | 53 | 313 | 8.0 | 26.0 | 0.00 | 0.00 | 0.00 | 43 | 1002.2 |
| 20260504231558 | 54 | 306 | 8.0 | 21.0 | 0.00 | 0.00 | 0.00 | 42 | 1002.1 |
| 20260504230041 | 55 | 352 | 7.0 | 18.0 | 0.00 | 0.00 | 0.00 | 41 | 1001.7 |
| 20260504224542 | 56 | 294 | 7.0 | 21.0 | 0.00 | 0.00 | 0.00 | 41 | 1001.4 |
| 20260504223047 | 57 | 316 | 7.0 | 21.0 | 0.00 | 0.00 | 0.00 | 40 | 1001.2 |
| 20260504221553 | 57 | 255 | 5.0 | 24.0 | 0.00 | 0.00 | 0.00 | 41 | 1000.9 |
| 20260504220045 | 57 | 337 | 9.0 | 18.0 | 0.00 | 0.00 | 0.00 | 40 | 1000.5 |
| 20260504214546 | 58 | 319 | 7.0 | 21.0 | 0.00 | 0.00 | 0.00 | 40 | 1000.4 |